Regional Weather Roundup
Issued by NWS

Home | Current Version | Previous Version | Graphics & Text | Print | Product List | Glossary On
Versions: 1 2 3 4 5 6 7 8 9 10 11 12 13 14 15 16 17 18 19 20 21 22 23 24 25 26 27
000
ASUS45 KPSR 190210
RWRAZ

ARIZONA HOURLY REGIONAL WEATHER ROUNDUP
NATIONAL WEATHER SERVICE PHOENIX AZ
700 PM MST SUN FEB 18 2018

NOTE: FAIR INDICATES FEW OR NO CLOUDS BELOW 12,000 FEET WITH NO
SIGNIFICANT WEATHER AND/OR OBSTRUCTIONS TO VISIBILITY.

AZZ001>003-036-190300-
NORTHWEST ARIZONA

CITY           SKY/WX    TMP DP  RH WIND       PRES   REMARKS
BULLHEAD CITY  CLEAR     72  25  17 S21G26    29.62F
KINGMAN        CLEAR     57  31  37 S18G32    29.70F
$$

AZZ004>008-015-016-018-190300-
NORTH CENTRAL ARIZONA

CITY           SKY/WX    TMP DP  RH WIND       PRES   REMARKS
GRAND CANYON   CLEAR     42  27  55 SW22G29   29.74F
WILLIAMS       CLEAR     41  28  60 S21G29    29.77S
PRESCOTT       CLEAR     49  35  58 S16G29    29.82F
FLAGSTAFF      MOCLDY    39  32  76 SW31G39   29.79S WCI  27
PAYSON         CLOUDY    50  37  62 SW10      29.88S
PAGE           CLEAR     58  22  24 S10G20    29.58S
$$

AZZ009>014-017-190300-
NORTHEAST ARIZONA

CITY           SKY/WX    TMP DP  RH WIND       PRES   REMARKS
WINSLOW        CLEAR     51  34  52 SW26G36   29.78F
SAINT JOHNS    CLEAR     48  35  60 SW12      29.84F
WINDOW ROCK    CLEAR     46  29  51 SW16G26   29.80S
SHOW LOW       CLOUDY    46  34  61 SW12      29.90S
$$

AZZ540-542>544-546-548-190300-
GREATER PHOENIX AREA

CITY           SKY/WX    TMP DP  RH WIND       PRES   REMARKS
PHOENIX        MOCLDY    70  39  32 W7        29.78F
BUCKEYE        MOCLDY    64  39  39 S6        29.79S
GLENDALE       MOCLDY    68  37  32 CALM      29.80F
LUKE AFB       CLEAR     66  41  40 SW6       29.77F
DEER VALLEY    CLOUDY    66  38  35 W3        29.79F
SCOTTSDALE     MOCLDY    67  41  38 W3        29.81F
MESA-FALCON    MOCLDY    70  39  32 S5        29.81S
MESA-GATEWAY   MOCLDY    66  39  37 SW6       29.81F
CHANDLER       MOCLDY    70  37  30 S6        29.80S
$$

AZZ539-553-190300-
SOUTHWEST MARICOPA COUNTY AND PINAL COUNTY

CITY           SKY/WX    TMP DP  RH WIND       PRES   REMARKS
CASA GRANDE    LGT RAIN  69  40  34 S6        29.82S
GILA BEND      FAIR      71  35  27 S16       29.78F
$$

AZZ503-504-507>509-190300-
SOUTHEAST ARIZONA

CITY           SKY/WX    TMP DP  RH WIND       PRES   REMARKS
TUCSON         MOCLDY    63  47  55 W10       29.90R
DAVIS-MONTHAN  PTCLDY    62  48  60 W9        29.88R
RYAN FIELD     MOCLDY    63  46  55 W9        29.90R
NOGALES        CLOUDY    58  48  69 SW9       29.93S
SIERRA VISTA   MOCLDY    55  43  64 SW6       29.95S
DOUGLAS        CLOUDY    60  44  55 SW17G25   29.93S
SAFFORD        MOCLDY    58  46  64 N6        29.84S
$$

AZZ532-190300-
SOUTHWEST ARIZONA

CITY           SKY/WX    TMP DP  RH WIND       PRES   REMARKS
YUMA           CLEAR     70  36  28 S12       29.77F
$$

CAZ041-043-047-048-061-525>527-560>570-190300-
SOUTHERN CALIFORNIA

CITY           SKY/WX    TMP DP  RH WIND       PRES   REMARKS
DOWNTOWN L.A.  CLEAR     58  49  72 CALM      29.88F
L.A. AIRPORT   PTCLDY    58  50  75 W10       29.89F
SAN DIEGO      MOCLDY    60  50  69 SW9       29.94S
BURBANK        CLEAR     56  49  77 S6        29.87S
ONTARIO        PTCLDY    58  40  51 SW14      29.87S
RIVERSIDE      CLEAR     59  41  51 W10       29.86S
PALM SPRINGS   PTCLDY    71  35  26 E9        29.73F
EL CENTRO NAS  LGT RAIN  69  40  34 W20G29    29.78F
IMPERIAL       CLEAR     68  43  40 W13       29.76S
BLYTHE         CLEAR     71  37  28 SW16      29.73S
NEEDLES        CLEAR     73  27  18 SW20G25   29.65F
$$

NVZ020-UTZ003-190300-
SOUTHERN NEVADA-UTAH

CITY           SKY/WX    TMP DP  RH WIND       PRES   REMARKS
LAS VEGAS      PTCLDY    65  24  21 S20G30    29.53F
SALT LAKE CITY LGT SNOW  35  33  92 N9        29.55S FOG     WCI  28
$$

NMZ009-TXZ055-190300-
NEW MEXICO-WEST TEXAS

CITY           SKY/WX    TMP DP  RH WIND       PRES   REMARKS
ALBUQUERQUE    MOCLDY    58  27  30 W20G28    29.80R
EL PASO        CLOUDY    65  41  41 SW14      29.85S
$$


........................KEY........................
SKY/WX - SKY CONDITION/WEATHER
TMP    - TEMPERATURE IN FAHRENHEIT
DP     - DEW POINT IN FAHRENHEIT
RH     - RELATIVE HUMIDITY IN PERCENT
WIND   - DIRECTION AND SPEED IN MILES PER HOUR (MPH)
VRB    - VARIABLE WIND DIRECTION
PRES   - MEAN SEA LEVEL PRESSURE IN INCHES OF MERCURY
         F - FALLING PRESSURE   R - RISING PRESSURE
         S - STEADY PRESSURE
VSB    - VISIBILITY IN MILES
HX     - HEAT INDEX IN FAHRENHEIT
WCI    - WIND CHILL INDEX IN FAHRENHEIT
TC     - TEMPERATURE IN CELSIUS WHICH IS ALSO KNOWN AS
         TEMPERATURE IN CENTIGRADE
AFB    - AIR FORCE BASE
         LUKE AFB IS LUKE AIR FORCE BASE
         DAVIS-MONTHAN IS DAVIS-MONTHAN AIR FORCE BASE
NAS    - NAVAL AIR STATION
         EL CENTRO NAS IS EL CENTRO NAVAL AIR STATION
N/A    - NOT AVAILABLE





USA.gov is the U.S. government's official web portal to all federal, state and local government web resources and services.